User: anonymous   Login
Location: Newark
(54.0500°N, 12.8333°E)
Time: 09:26:11
(UTC+00:00)
Language:

Tiros 1 - Orbit

View from above orbital plane
View from above orbital plane
View from above satellite
View from above satellite

Ground track
Ground track

The orbit data is extracted from the following two-line orbital elements,

1    29U 60002B   20020.16465118 -.00000136  00000-0  10781-4 0  9997
2    29  48.3801 293.1503 0024554 313.2463  46.6399 14.74337712196633
Epoch (UTC): 20 January 2020 03:57:05
Eccentricity: 0.0024554
inclination: 48.3801°
perigee height: 630 km
apogee height: 664 km
right ascension of ascending node: 293.1503°
argument of perigee: 313.2463°
revolutions per day: 14.74337712
mean anomaly at epoch: 46.6399°
orbit number at epoch: 19663

The dashed part of the orbit path shows where the satellite is in the earth's shadow,  

DLR